TimeEDT,TemperatureF,Dew PointF,Humidity,Sea Level PressureIn,VisibilityMPH,Wind Direction,Wind SpeedMPH,Gust SpeedMPH,PrecipitationIn,Events,Conditions,WindDirDegrees,DateUTC
12:53 AM,53.1,44.1,71,29.96,10.0,NW,6.9,-,N/A,,Clear,320,2012-10-07 04:53:00
1:53 AM,52.0,41.0,66,29.97,10.0,NW,9.2,-,N/A,,Clear,320,2012-10-07 05:53:00
2:53 AM,52.0,39.0,61,29.98,10.0,NW,8.1,-,N/A,,Clear,320,2012-10-07 06:53:00
3:53 AM,50.0,39.9,68,29.99,10.0,NW,4.6,-,N/A,,Clear,310,2012-10-07 07:53:00
4:53 AM,50.0,39.0,66,30.00,10.0,NW,5.8,-,N/A,,Clear,320,2012-10-07 08:53:00
5:53 AM,48.9,37.9,66,30.02,10.0,WNW,3.5,-,N/A,,Clear,300,2012-10-07 09:53:00
6:53 AM,48.9,37.9,66,30.04,10.0,NW,5.8,-,N/A,,Clear,320,2012-10-07 10:53:00
7:53 AM,50.0,39.9,68,30.06,10.0,NW,6.9,-,N/A,,Clear,320,2012-10-07 11:53:00
8:53 AM,52.0,41.0,66,30.08,10.0,NW,6.9,-,N/A,,Clear,310,2012-10-07 12:53:00
9:53 AM,53.1,41.0,64,30.07,10.0,NNW,4.6,-,N/A,,Clear,340,2012-10-07 13:53:00
10:53 AM,55.9,39.9,55,30.06,10.0,North,5.8,-,N/A,,Clear,360,2012-10-07 14:53:00
11:53 AM,57.9,37.9,47,30.06,10.0,NNW,4.6,-,N/A,,Scattered Clouds,340,2012-10-07 15:53:00
12:53 PM,57.0,39.9,53,30.06,10.0,NNW,5.8,-,N/A,,Mostly Cloudy,330,2012-10-07 16:53:00
1:53 PM,55.9,39.9,55,30.06,10.0,WNW,4.6,-,0.00,,Overcast,300,2012-10-07 17:53:00
2:53 PM,54.0,42.1,64,30.05,7.0,Calm,Calm,-,0.00,Rain,Light Rain,0,2012-10-07 18:53:00
3:53 PM,53.1,45.0,74,30.04,10.0,Calm,Calm,-,0.00,Rain,Light Rain,0,2012-10-07 19:53:00
4:53 PM,51.1,46.0,83,30.03,10.0,Calm,Calm,-,0.01,Rain,Light Rain,0,2012-10-07 20:53:00
5:41 PM,51.8,48.2,88,30.03,10.0,NNW,3.5,-,0.00,,Overcast,340,2012-10-07 21:41:00
5:53 PM,52.0,48.0,86,30.04,10.0,Calm,Calm,-,0.00,,Overcast,0,2012-10-07 21:53:00
6:53 PM,51.1,48.0,89,30.03,10.0,Calm,Calm,-,N/A,,Overcast,0,2012-10-07 22:53:00
7:53 PM,51.1,48.0,89,30.01,10.0,NE,3.5,-,N/A,,Overcast,40,2012-10-07 23:53:00
8:53 PM,51.1,48.0,89,30.01,10.0,Calm,Calm,-,N/A,,Overcast,0,2012-10-08 00:53:00
9:42 PM,50.0,48.2,94,30.04,5.0,Calm,Calm,-,0.00,Rain,Light Rain,0,2012-10-08 01:42:00
9:53 PM,50.0,46.0,86,30.04,8.0,Calm,Calm,-,0.00,Rain,Light Rain,0,2012-10-08 01:53:00
10:03 PM,50.0,46.4,87,30.05,10.0,West,8.1,-,0.00,,Overcast,280,2012-10-08 02:03:00
10:29 PM,48.2,46.4,93,30.05,7.0,WNW,11.5,-,0.00,,Overcast,290,2012-10-08 02:29:00
10:53 PM,46.9,46.0,97,30.06,3.0,West,10.4,-,0.01,Rain,Rain,280,2012-10-08 02:53:00
11:05 PM,46.4,46.4,100,30.06,7.0,WNW,8.1,-,0.00,Rain,Light Rain,300,2012-10-08 03:05:00
11:34 PM,48.2,44.6,87,30.06,10.0,NW,12.7,-,0.01,,Overcast,310,2012-10-08 03:34:00
11:53 PM,48.9,44.1,83,30.06,10.0,NW,10.4,-,0.01,,Overcast,310,2012-10-08 03:53:00